Showing default

OPS 9311 (IDSCS 1), 2215

Orbit data source: Space-Track

OPS 9311 (IDSCS 1), 2215 is a payload satellite owned by USAF SSD (US) in GEO that was launched on Thu, 16 Jun 1966 UTC via a TITAN IIIC launch vehicle from the Air Force Eastern Test Range (AFETR). Payload-class satellites include a variety of spacecraft equipped with specific instruments for various scientific and technological missions. These include communications satellites like Starlink; space stations such as the ISS; scientific satellites like the Hubble; Earth observation satellites from companies like Planet Labs, Umbra, and HawkEye 360; GPS; miniature CubeSats for education and research; and military/defense satellites.

Not visible in the next 10 days
Identifier
2215, 1966-053B
Orbit
GEO
Last TLE update
1 day ago
Origin
Manufacturer
Philco-Ford WDL
Mission
Non-operational Defense Communications
Bus & Motor
IDCSP, Unknown motor
Mass
45 kg wet, 45 kg dry
Launch date (UTC)
1966-06-16 (59 years ago)
Launch vehicle
TITAN IIIC
Launch site
Air Force Eastern Test Range (AFETR)
Object type
Payload
Rocket body
Debris
Shape & HBR
Ico Poly, 0.9 m
Radar Cross Section
0.926 m², Medium (>0.1 m² and < 1m²)

Expand to show TLE details & history

TLE from 1 day ago
0 OPS 9311 (IDSCS 1)
1 02215U 66053B   25188.09087012 -.00000118  00000-0  00000-0 0  9992
2 02215   8.0309  46.8391 0029302 213.5004 146.2821  1.07910518130644
Epoch: 2025-07-07T02:10Z
TLE epoch observation values (Epoch: 2025-07-07T02:10:51.178Z)
Latitude
Longitude
88.79101°
Altitude
33,870.139 km
Speed
3.143 km/s
True Right ascension
03h 07m 14s
True Declination
0° 00' 00"
Sunlit
Object was in daylight at epoch
Visualization orbit readout
Latitude
7.96115°
Longitude
-172.17°
Altitude
33,820.758 km
Speed
3.147 km/s
Apparent Right ascension
09h 24m 44s
Apparent Declination
1° 58' 10"
Sunlit
Object is in daylight
Visualization observer readout
Local Sidereal Time
18:39:16
Azimuth
307.547° NW
Elevation
-33.589°
Doppler factor
1
Orbital elements
Apogee altitude
33,891.262 km
Perigee altitude
33,655.957 km
Semi-major axis
40,151.746 km
Eccentricity
0.00293
Inclination
8.0309°
RAAN
46.8391°
Arg. of periapsis
213.5004°
True anomaly
Unknown
Mean anomaly
146.2821°
Eccentric anomaly
Unknown
Mean motion
0.26977 °/min
Orbital period
1,334.49 mins
BSTAR
0
Loading historical data...
2215 neighbors
Loading maneuver chart data...
Loading SW <> Apogee altitude chart data...
Loading historical data...
Loading historical data...
Loading historical data...
Loading historical data...
Loading historical data...
Loading historical data...
Loading historical data...

OPS 9311 (IDSCS 1) Visibility

Observer location: undefined°, undefined°

OPS 9311 (IDSCS 1) is likely not visible in the next few days
Span
Click to sort rows by Start time (UTC) header in descending order
Start Az.
Max El. time (UTC)
Max El. Az.
Max El.
End time (UTC)
End Az.
|